Regional Weather Roundup
Issued by NWS

Home | Current Version | Previous Version | Text Only | Print | Product List | Glossary Off
Versions: 1 2 3 4 5 6 7 8 9 10 11 12 13 14 15 16 17 18 19 20 21 22 23 24 25 26 27 28 29 30 31 32 33 34 35 36 37 38 39 40 41 42 43 44 45 46 47 48 49 50

000
ASUS43 KBIS 310702
RWRND

NORTH DAKOTA REGIONAL WEATHER ROUNDUP
NATIONAL WEATHER SERVICE BISMARCK ND
200 AM CDT MON AUG 31 2015

NOTE: "FAIR" INDICATES FEW OR NO CLOUDS BELOW 12,000 FEET WITH NO
SIGNIFICANT WEATHER AND/OR OBSTRUCTIONS TO VISIBILITY.


NDZ001>003-009>011-017-310800-
NORTHWEST NORTH DAKOTA

CITY           SKY/WX    TMP DP  RH WIND       PRES   REMARKS
WILLISTON      LGT RAIN  67  52  58 CALM      29.70R
MINOT          CLOUDY    65  51  60 W5        29.67F
MINOT AFB      CLOUDY    67  52  57 CALM      29.66F
$$

NDZ018>021-031>035-040>046-310800-
SOUTHWEST NORTH DAKOTA

CITY           SKY/WX    TMP DP  RH WIND       PRES   REMARKS
BISMARCK       CLOUDY    70  60  70 N3        29.62R
DICKINSON      CLOUDY    69  50  50 NE6       29.72F
GARRISON         N/A     64  57  78 NE6       29.69R
HETTINGER ARPT MOCLDY    66  53  63 NW8       29.71R HAZE
$$

NDZ004>008-012>016-024-026-027-054-310800-
NORTHEAST NORTH DAKOTA

CITY           SKY/WX    TMP DP  RH WIND       PRES   REMARKS
GRAND FORKS    PTCLDY    70  66  87 S14       29.65S
GRND FRKS AFB  PTCLDY    70  67  89 S10       29.65F
DEVILS LAKE    PTCLDY    70  63  78 S6        29.62F
$$

NDZ022-023-025-028>030-036>039-047>053-310800-
SOUTHEAST NORTH DAKOTA

CITY           SKY/WX    TMP DP  RH WIND       PRES   REMARKS
FARGO          CLEAR     69  61  75 S18G26    29.70S
JAMESTOWN      CLEAR     69  66  90 S15       29.66F
$$




USA.gov is the U.S. government's official web portal to all federal, state and local government web resources and services.